[Iaude] MPEC C22: 2024 BH5 [a=1.75,e=0.47,i=3.1,H=23.7]
    mpec at marsden.cfa.harvard.edu 
    mpec at marsden.cfa.harvard.edu
       
    Thu Feb  1 19:58:18 EST 2024
    
    
  
M.P.E.C. 2024-C22                              Issued 2024 February 2, 00:56 UT
     The Minor Planet Electronic Circulars contain information on unusual
         minor planets, routine data on comets and natural satellites,
         and occasional editorial announcements.  They are published
    on behalf of Division F of the International Astronomical Union by the
          Minor Planet Center, Smithsonian Astrophysical Observatory,
                          Cambridge, MA 02138, U.S.A.
			  
             Prepared using the Tamkin Foundation Computer Network
                              MPC at CFA.HARVARD.EDU
            URL https://www.minorplanetcenter.net/    ISSN 1523-6714
                                    2024 BH5                                    
Observations:
     K24B05H  C2024 01 04.43382109 31 56.158+20 44 29.29         22.74GVEC022F51
     K24B05H  C2024 01 04.44613309 31 57.965+20 44 32.88         22.38GVEC022F51
     K24B05H  C2024 01 04.45844109 31 59.783+20 44 36.82         22.70GVEC022F51
     K24B05H 1C2024 01 19.41114 10 25 01.95 +22 25 55.4          22.4 GVEC022G96
     K24B05H 1C2024 01 19.42682 10 25 06.47 +22 26 02.9          21.6 GVEC022G96
     K24B05H* C2024 01 20.45342510 30 25.014+22 35 02.04         21.31wXEC022F52
     K24B05H  C2024 01 20.46581810 30 28.718+22 35 08.85         22.13wXEC022F52
     K24B05H  C2024 01 20.47826910 30 32.476+22 35 15.98         21.39wXEC022F52
     K24B05H  C2024 01 20.61689210 31 14.174+22 36 27.52         21.50GVEC022F52
     K24B05H  C2024 01 20.61753710 31 14.369+22 36 27.87         21.69GVEC022F52
     K24B05H  C2024 01 22.49756710 41 56.012+22 52 40.65         21.14GVEC022F52
     K24B05H  C2024 01 22.49838410 41 56.308+22 52 41.44         21.31GVEC022F52
Observer details:
F51 Pan-STARRS 1, Haleakala.  Observers J. Herman, T. Lowe, P. Minguez, A.
    Schultz, I. Smith.  Measurers K. Chambers, T. de Boer, J. Fairlamb, H.
    Gao, M. Huber, C.-C. Lin, E. Magnier, Y. Ramanjooloo, R. Wainscoat, R.
    Weryk.  1.8-m Ritchey-Chretien + CCD.
F52 Pan-STARRS 2, Haleakala.  Observers J. Herman, T. Lowe, P. Minguez, A.
    Schultz, I. Smith.  Measurers K. Chambers, T. de Boer, J. Fairlamb, H.
    Gao, M. Huber, C.-C. Lin, E. Magnier, Y. Ramanjooloo, R. Wainscoat, R.
    Weryk.  1.8-m Ritchey-Chretien + CCD.
G96 Mt. Lemmon Survey.  Observer A. R. Gibbs.  Measurers B. Gray, D. Rankin,
    F. C. Shelly.  1.5-m reflector + 10K CCD.
Orbital elements:
2024 BH5                                                 Earth MOID = 0.0246 AU
Epoch 2023 Sept. 13.0 TT = JDT 2460200.5                MPC                     
M 279.78588              (2000.0)            P               Q                  
n   0.42732818     Peri.  108.68258     -0.97767998     +0.20329683             
a   1.7456682      Node    83.07381     -0.20721721     -0.89137849             
e   0.4717631      Incl.    3.06223     -0.03468254     -0.40511083             
P   2.31           H   23.79          G   0.15           U   8                  
Residuals in seconds of arc
240104 F51  0.1+  0.1+    240119 G96  0.1+  0.0     240120 F52  0.1-  0.0
240104 F51  0.1-  0.1-    240120 F52  0.2-  0.1+    240120 F52  0.1-  0.1+
240104 F51  0.0   0.1+    240120 F52  0.5-  0.1-    240122 F52  0.2-  0.2-
240119 G96 (1.2-  0.5+)   240120 F52  0.3-  0.0     240122 F52  0.1+  0.2+
Ephemeris:
2024 BH5                 a,e,i = 1.75, 0.47, 3                   q = 0.9221
Date    TT    R. A. (2000) Decl.     Delta      r    Elong.  Phase     V
2024 01 03    09 28 14.7 +20 38 19   0.3312  1.2651   143.5    27.5    23.1
...
2024 01 18    10 18 16.1 +22 14 01   0.2084  1.1642   147.0    27.4    21.9
...
2024 01 26    11 05 29.5 +23 20 15   0.1553  1.1133   143.6    31.6    21.3
...
2024 02 01    12 01 20.5 +23 35 09   0.1231  1.0773   136.1    39.4    21.0
2024 02 02    12 13 02.1 +23 28 53   0.1185  1.0715   134.3    41.2    20.9
2024 02 03    12 25 29.4 +23 18 36   0.1143  1.0658   132.3    43.2    20.9
...
2024 02 09    13 54 58.8 +20 14 23   0.09657 1.0330   116.4    58.8    20.9
...
2024 02 17    16 03 56.4 +10 25 35   0.09783 0.9944    91.0    83.4    21.6
...
2024 03 03    18 25 27.0 -04 34 33   0.1566  0.9418    67.2   104.0    23.5
A. U. Tomatic                (C) Copyright 2024 MPC           M.P.E.C. 2024-C22
    
    
More information about the Iaude
mailing list